www.pogodaiklimat.ru

Погода и климат >> Архив погоды >> Украина >> Вознесенск


ПОГОДА в Вознесенске

  • Прогноз погоды в Вознесенске
  • Монитор погоды в Вознесенске

АРХИВ ПОГОДЫ в Вознесенске

Время (UTC), дата Ветер
(напр.,м/с)
 
Видим.   Явления Облачность Т
(С)
Тd
(С)
f
(%)
Тe
(С)
Тes
(С)
Комфортность P
(гПа)
Po
(гПа)
Тmin
(С)
Tmax
(С)
R
(мм)
R24
(мм)
S
(см)
09 17.06 СВ 3 20 км 8/0
[Ci fib]
+29.8 +11.8 33 +30 +30 жарко 1015.0 1011.1
12 17.06 СЗ 2 20 км 4/0
[Ci fib]
+31.6 +10.3 27 +31 +42 жарко 1015.0 1011.2
15 17.06 СВ 3 20 км 3/0
[Ci fib]
+31.4 +13.2 33 +32 +35 жарко 1014.0 1010.2
18 17.06 СВ 1 20 км ясно +27.2 +14.9 47 +30 +30 душно 1015.0 1011.1 +32.3
21 17.06 СВ 1 10 км 4/0
[Ac trans]
+22.6 +15.7 65 +27 +27 душно 1016.0 1012.0
00 18.06 штиль 0 10 км 5/3 600 м
[Sc Ac trans]
+20.0 +16.2 79 +22 +22 комфорт 1016.0 1012.0
03 18.06 штиль 0 20 км 3/0
[Ci fib]
+18.4 +15.1 81 +19 +19 1016.0 1012.0
06 18.06 штиль 0 20 км 3/0
[Ci fib]
+25.7 +15.1 52 +29 +37 душно 1016.0 1012.1 +18.0
09 18.06 штиль 0 20 км 3/0
[Ac As]
+30.2 +13.5 36 +32 +48 жарко 1016.0 1012.1
12 18.06 С 1 20 км 3/3 1000 м
[Cu med, cong]
+32.4 +14.5 34 +34 +46 очень
жарко
1014.0 1010.2
15 18.06 С 1 20 км 4/3 1000 м
[Cu med, cong Ac As]
+32.3 +15.3 36 +35 +38 очень
душно
1013.0 1009.2
18 18.06 СВ 3 20 км 4/0
[Ac trans Ci fib]
+28.0 +18.1 55 +33 +33 очень
душно
1014.0 1010.1 +33.2
21 18.06 штиль 0 10 км 3/0
[Ac trans Ci fib]
+24.1 +19.2 74 +29 +29 душно 1015.0 1011.1
00 19.06 штиль 0 10 км ясно +21.3 +18.7 85 +26 +26 душно 1015.0 1011.0
03 19.06 штиль 0 20 км ясно +20.1 +17.7 86 +23 +24 комфорт 1015.0 1011.0
06 19.06 СВ 2 20 км ясно +26.6 +17.1 56 +31 +39 душно 1015.0 1011.1 +20.0
09 19.06 С 3 20 км 4/4 1000 м
[Cu hum]
+30.4 +15.3 40 +33 +43 душно 1015.0 1011.1
12 19.06 С 3 20 км 6/6 1000 м
[Cu med, cong]
+32.8 +16.2 37 +36 +41 очень
душно
1013.6 1009.8
15 19.06 СВ 3 20 км 8/8 1000 м
[Cu med, cong]
+32.2 +15.2 36 +34 +34 душно 1013.0 1009.2
18 19.06 СЗ 1 20 км 1/0
[Ac As]
+28.1 +17.0 51 +32 +32 душно 1012.0 1008.1 +33.1
21 19.06 СВ 1 20 км ясно +23.8 +16.1 62 +27 +27 жарко 1013.0 1009.1
00 20.06 штиль 0 10 км ясно +21.0 +16.4 75 +24 +24 комфорт 1013.0 1009.0
03 20.06 штиль 0 20 км 1/0
[Ci fib]
+19.9 +16.9 83 +22 +23 комфорт 1013.0 1009.0
06 20.06 С 2 20 км 3/0
[Cc]
+26.9 +17.6 57 +31 +37 душно 1013.0 1009.1 +19.7
09 20.06 СВ 3 20 км 6/4 1000 м
[Cu med, cong Cc]
+31.7 +17.2 42 +35 +41 очень
душно
1012.0 1008.2
12 20.06 СВ 3 20 км 8/8 600 м
[Cb cap Cs]
+33.4 +15.4 34 +35 +35 душно 1012.0 1008.2
15 20.06 С 4 20 км 5/3 600 м
[Cb cap Cs]
+33.4 +12.9 29 +34 +35 очень
жарко
1011.0 1007.2
18 20.06 СВ 1 20 км 5/0
[Ac As Ci fib]
+28.8 +15.0 43 +31 +31 жарко 1012.0 1008.1 +34.5
21 20.06 СВ 2 10 км ясно +25.2 +14.3 51 +28 +28 жарко 1013.0 1009.1
00 21.06 штиль 0 10 км 3/0
[Ac trans]
+20.4 +15.4 73 +23 +23 комфорт 1013.0 1009.0
03 21.06 штиль 0 20 км 3/3 1000 м
[Cu med, cong]
+18.8 +14.9 78 +20 +20 1014.0 1010.0
06 21.06 ЮВ 2 20 км 6/4 600 м
[Sc diur, vesp As trans Ci fib]
+28.2 +14.4 43 +30 +34 жарко 1014.0 1010.1 +18.7
09 21.06 В 3 20 км 4/3 1000 м
[Cu hum Ac trans]
+32.8 +10.2 25 +32 +43 жарко 1015.0 1011.2
12 21.06 В 3 20 км 8/4 1000 м
[Cu hum Cs]
+34.3 +10.8 24 +34 +34 очень
жарко
1014.0 1010.2
15 21.06 СВ 2 20 км 6/3 1000 м
[Cu hum Cs]
+34.4 +9.6 22 +33 +35 жарко 1013.0 1009.2
18 21.06 СВ 1 20 км 5/3 600 м
[Sc Ac As Cs]
+30.0 +14.5 39 +32 +32 жарко 1013.0 1009.1 +34.6
21 21.06 СВ 1 10 км ясно +25.8 +13.3 46 +28 +28 жарко 1014.0 1010.1
00 22.06 штиль 0 10 км 1/0
[Ac As]
+21.0 +14.6 67 +24 +24 комфорт 1014.0 1010.0
03 22.06 штиль 0 20 км 3/3 600 м
[Sc Ac As]
+19.6 +15.0 75 +21 +22 комфорт 1015.0 1011.0
06 22.06 С 1 20 км 8/3 600 м
[Sc Ac trans]
+26.5 +15.8 52 +30 +30 душно 1015.0 1011.1 +19.3
09 22.06 СЗ 1 20 км 8/4 1000 м
[Cu med, cong Ac trans Ci fib]
+33.1 +16.0 36 +36 +36 очень
душно
1015.0 1011.2
12 22.06 СЗ 2 20 км 6/5 600 м
[Sc diur, vesp Ci fib]
+35.8 +12.1 24 +36 +42 очень
жарко
1014.0 1010.2
15 22.06 С 1 20 км в посл. час ливневой дождь 8/8 600 м
[Sc diur, vesp]
+27.8 +19.6 61 +34 +34 очень
душно
1013.0 1009.1
18 22.06 штиль 0 20 км {ливн. осадки} 10/8 600 м
[Sc Ac trans Cc]
+27.4 +19.0 60 +33 +33 очень
душно
1013.7 1009.9 +36.9 5
21 22.06 штиль 0 10 км ясно +24.0 +15.2 58 +27 +27 жарко 1015.1 1011.2
00 23.06 В 2 10 км 6/0
[Ac trans]
+23.0 +19.1 79 +29 +29 очень
душно
1015.4 1011.5
03 23.06 штиль 0 20 км 8/5 600 м
[Sc Ac trans Ci]
+21.9 +17.3 75 +26 +26 душно 1016.0 1012.0
06 23.06 штиль 0 20 км 9/8 600 м
[Sc Ac As]
+23.5 +18.4 73 +28 +28 душно 1015.0 1011.1 +21.5
09 23.06 штиль 0 20 км 10/8 600 м
[Sc Ac As]
+25.0 +18.2 66 +29 +29 душно 1016.0 1012.1
12 23.06 СВ 1 20 км 8/0 600 м
[Ac As Ci fib]
+32.1 +16.0 38 +35 +35 очень
душно
1014.0 1010.2
15 23.06 В 1 20 км 8/3 600 м
[Cu med, cong Ac As Ci fib]
+31.6 +13.3 33 +33 +33 жарко 1013.0 1009.2
18 23.06 ЮВ 1 20 км 8/6 600 м
[Sc Ac trans]
+28.3 +14.9 44 +31 +31 душно 1014.0 1010.1 +32.8
21 23.06 ЮЗ 2 10 км 8/8 600 м
[Sc]
+24.4 +16.4 61 +28 +28 душно 1015.0 1011.1
00 24.06 штиль 0 10 км 8/8 600 м
[Cb cap]
+21.8 +16.7 73 +26 +26 душно 1015.0 1011.0
03 24.06 СЗ 1 20 км {ливн. осадки} 8/6 600 м
[Sc Ci fib]
+20.4 +17.2 82 +25 +25 комфорт 1015.0 1011.0
06 24.06 СЗ 2 20 км {ливн. осадки} 8/4 600 м
[Cb cap Ac As Cc]
+26.0 +16.8 57 +30 +30 душно 1016.0 1012.1 +19.6 1

 

Местоположение метеостанции Вознесенск (Николаевская область, Украина): широта 47.57 долгота 31.33 высота над уровнем моря 34 м.

В архиве по умолчанию представлена погода в Вознесенске за последнюю неделю. Архивные данные за месяц целиком и за предыдущие месяцы, начиная с января 2011 года, Вы можете получить, выбрав интересующий диапазон дат из раскрывающегося списка и нажав кнопку "Ввод!".


*Определитесь, кто Вы:
робот инопланетянин человек

Внимание! Время в таблицах - всемирное. Для получения местного времени необходимо прибавить поправку, которая равна 2 ч.

Смотрите также архив погоды в соседних городах и на ближайших метеорологических станциях:

Погода в Первомайске (Николаевская область, Украина) (64 км)
Погода в Помошной (Кировоградская область, Украина) (74 км)
Погода в Сербке (Одесская область, Украина) (75 км)
Погода в Николаеве (Николаевская область, Украина) (76 км)
Погода в Бобринце (Кировоградская область, Украина) (83 км)
Погода в Любашевке (Одесская область, Украина) (85 км)
Погода в Баштанке (Николаевская область, Украина) (87 км)
Погода в Очакове (Николаевская область, Украина) (106 км)
Погода в Затишье (Одесская область, Украина) (112 км)
Погода в Долинской (Кировоградская область, Украина) (124 км)

Пояснения к столбцам:

Ветер - указаны скорость ветра в м/с - средняя за 10 мин, порывы в срок и между сроками (в фигурных скобках) и направление, откуда дует ветер: С - северный, СВ - северо-восточный, В - восточный, ЮВ - юго-восточный, Ю - южный, ЮЗ - юго-западный, З - западный, СЗ - северо-западный.
Видимость - горизонтальная дальность видимости в метрах или километрах. При видимости от 1 до 10 км при отсутствии осадков обычно наблюдается дымка, при ухудшении видимости до 1 км и менее - туман. В сухую погоду видимость может ухудшаться дымом, пылью или мглою.
Явления - указаны атмосферные явления, наблюдавшиеся в срок или в последний час перед сроком; фигурными скобками обозначены явления, наблюдавшиеся между сроками (за 1-3 часа до срока); квадратными скобками обозначены град или гололедные отложения с указанием их диаметра в мм.
Облачность - указаны через наклонную черту общая и нижняя облачность в баллах и высота нижней границы облаков в метрах; квадратными скобками обозначены формы облаков: Ci - перистые, Cs - перисто-слоистые, Cc - перисто-кучевые, Ac - высококучевые, As - высокослоистые, Sc - слоисто-кучевые, Ns - слоисто-дождевые, Cu - кучевые, Cb - кучево-дождевые. Подробнее классификацию облаков см. в Атласе облаков (PDF).
T - Температура воздуха - температура, измеренная на высоте 2 м над землей.
Td - Температура точки росы - температура, при понижении до которой содержащийся в воздухе водяной пар достигнет насыщения.
f - Относительная влажность воздуха - влажноcть воздуха, измеренная на высоте 2 м над землей.
Te - Эффективная температура - температура, которую ощущает одетый по сезону человек в тени. Характеристика душности погоды. При расчете учитывается влияние влажности воздуха и скорости ветра на теплоощущения человека.
Tes - Эффективная температура на солнце - температура, которую ощущает человек, с поправкой на солнечный нагрев. Характеристика знойности погоды. Зависит от высоты солнца над горизонтом, облачности и скорости ветра. Ночью, в пасмурную погоду, а также при ветре 12 м/с и более поправка равна нулю.
P - Атмосферное давление - приведенное к уровню моря атмосферное давление.
Po - Атмосферное давление - измеренное на уровне метеостанции атмосферное давление.
Tmin - Минимальная температура - минимум температуры воздуха на высоте 2 м над землей.
Tmax - Максимальная температура - максимум температуры воздуха на высоте 2 м над землей.
R - Количество осадков - Количество выпавших осадков за период времени, мм. При наведении курсора мыши на число - период времени, за который выпало указанное количество осадков.
R24 - Количество осадков - Количество выпавших осадков за 24 часа, мм.
S - Снежный покров - Высота снежного покрова, см. При наведении курсора мыши на число - состояние снежного покрова и степень покрытия местности в баллах.